Location: Agadir-Ikarkaouin
(31.1503°N, 9.0246°W)
Time: 04:08:11
(UTC+00:00)

Cosmos 1900 - Pass Details

Date: 18 September 2020
Orbit: 679 x 743 km, 66.1° (Epoch: 23 October)

Event Time Altitude Azimuth Distance (km) Brightness Sun altitude
Rises 19:36:38 0° 333° (NNW) 3,182 8.3 -13.4°
Reaches altitude 10° 19:39:01 10° 333° (NNW) 2,256 7.4 -13.9°
Maximum altitude 19:44:11 87° 247° (WSW) 746 4.4 -15.0°
Drops below altitude 10° 19:49:19 10° 157° (SSE) 2,231 6.6 -16.1°
Enters shadow 19:49:34 - 157° (SSE) 2,329 6.7 -16.1°
